Temp
17 17 18 18 18 18 18 18 18 18 19 19 18 18 18 17 16 15 15 15 13 12 13 12 11 11 12 12 12 13 13 13 13 13 13 13 12 11 11 11 11 10 10 10 9 9 9 8 8 8 8 8 8 8 8 7 7 7 7 7 6 6 6 6 5 5 5 4 4 3 3 3 3 3
17 17 18 18 18 18 18 18 18 18 18 19 18 19 19 18 18 16 16 15 14 13 12 13 12 11 11 12 12 12 13 12 12 13 13 12 11 11 10 10 10 10 10 9 9 9 8 8 8 8 8 8 8 8 7 7 7 7 7 6 6 6 6 5 5 5 4 4 3 3 3 3 3 2
17 17 17 18 18 18 18 18 18 18 18 18 18 19 19 18 18 17 17 16 14 13 13 13 13 12 12 12 12 12 12 12 12 12 12 11 11 10 10 10 9 9 9 9 9 8 8 8 8 8 8 8 8 7 7 7 7 6 6 6 6 6 5 5 5 4 4 3 3 3 2 3 3 2
17 17 17 17 18 18 18 18 18 18 18 18 18 19 18 18 18 18 17 16 14 13 14 13 13 12 12 11 12 12 12 12 12 12 11 11 10 10 9 9 9 9 9 9 8 8 8 8 8 8 8 7 7 7 7 7 6 6 6 6 6 5 5 5 5 4 3 3 2 2 2 2 2 2
16 16 17 17 17 18 18 18 18 18 18 18 18 18 18 18 18 18 17 16 13 12 13 13 13 12 12 11 11 11 12 11 11 11 10 10 10 9 9 8 8 8 8 8 8 8 8 8 8 7 7 7 7 7 7 6 6 6 6 5 5 5 5 4 4 3 3 2 2 2 2 2 2 2
16 16 16 16 17 18 18 18 18 18 18 18 18 18 18 18 18 18 17 15 13 11 11 12 12 12 12 12 11 11 11 11 10 10 10 9 9 9 8 8 8 8 8 8 8 8 8 8 8 7 7 7 7 6 6 6 6 6 5 5 5 5 4 4 3 3 2 2 2 2 2 2 3 2
16 16 16 16 16 17 18 18 18 18 18 18 18 18 18 18 18 18 17 16 13 11 10 11 11 11 11 11 11 11 11 11 10 10 9 9 9 8 8 8 7 7 7 7 8 8 7 7 7 7 7 7 6 6 6 6 6 6 5 5 4 4 3 3 3 2 2 2 2 2 2 2 2 2
15 15 16 16 17 17 17 18 18 18 17 17 17 17 17 18 18 17 17 16 14 11 10 10 11 10 10 11 11 11 11 10 10 9 9 8 8 8 8 7 7 7 7 7 7 7 7 7 7 7 7 6 6 6 6 6 6 5 5 4 4 3 3 3 2 2 2 2 2 2 2 2 2 1
15 15 16 17 17 17 17 17 17 17 17 17 17 17 17 17 17 16 17 16 15 13 11 10 10 10 10 10 10 11 10 10 9 9 8 8 8 8 8 7 7 7 7 7 7 7 7 7 7 6 6 6 6 6 6 6 5 4 4 4 3 3 3 2 2 2 2 2 2 2 2 2 1 0
16 16 16 17 17 17 17 17 17 17 17 17 17 17 17 16 15 16 15 14 14 14 12 10 9 9 10 10 10 10 10 10 9 8 8 8 8 8 7 7 7 6 6 6 6 6 6 6 6 6 6 6 6 6 5 5 4 4 4 3 3 3 2 2 2 2 2 2 2 2 1 1 1 0
16 16 16 17 17 17 17 17 17 17 17 17 17 17 16 16 15 15 15 14 13 13 11 10 9 9 10 10 9 9 10 10 9 9 8 7 7 7 7 7 6 6 6 6 6 6 6 6 6 6 6 6 5 5 5 4 4 3 3 3 3 2 2 2 2 2 2 2 2 1 1 1 0 -0
16 16 16 16 17 17 17 17 17 17 17 17 17 17 16 15 14 14 14 13 12 11 10 9 9 9 9 9 9 8 8 8 8 8 8 7 6 6 7 6 6 6 6 6 5 5 5 5 5 5 6 6 5 5 4 4 4 3 3 3 3 2 2 2 2 2 2 2 1 1 1 0 0 -0
15 16 16 16 17 17 17 17 17 17 18 18 17 16 16 15 14 14 13 12 11 10 9 9 9 8 8 8 8 8 8 8 8 8 9 8 6 6 6 6 6 6 5 5 5 5 5 5 5 5 6 5 5 5 4 4 3 3 3 3 2 2 2 2 2 2 2 1 1 1 0 0 -0 0
14 15 15 16 17 17 17 17 17 18 18 18 18 18 16 15 14 13 12 11 11 10 9 9 8 8 7 7 8 8 8 9 8 8 8 8 6 6 6 5 5 5 5 5 5 5 5 5 5 5 5 5 5 4 4 3 3 3 3 2 2 2 2 2 2 2 2 1 1 0 0 -0 0 0
14 14 15 15 16 16 16 16 17 18 18 18 18 18 17 16 16 15 13 12 12 11 10 8 8 8 8 7 8 8 8 8 9 8 8 8 6 6 6 5 4 5 5 5 5 5 5 5 5 5 5 5 4 4 3 3 3 2 2 2 2 2 2 2 2 2 1 1 0 0 -0 -0 0 0
13 14 14 15 15 15 16 16 16 17 17 17 17 17 17 16 16 16 16 15 14 12 10 9 8 8 8 8 8 8 8 8 9 8 8 8 7 6 6 5 4 4 4 4 4 4 4 4 5 5 4 4 4 3 3 2 2 2 2 2 2 2 2 2 2 1 1 1 0 -0 -0 -0 0 0
13 13 13 14 14 15 15 15 15 16 16 16 16 15 15 15 15 16 16 17 16 14 13 12 10 9 10 9 9 9 9 9 9 8 8 8 8 7 6 5 4 4 4 4 4 4 4 4 5 4 4 4 3 3 2 2 2 2 2 2 2 2 2 2 1 1 1 1 0 -0 -0 -0 0 0
13 13 14 14 14 14 14 14 14 15 15 15 14 13 13 13 14 14 14 15 15 15 15 14 12 11 12 11 10 9 10 10 10 9 8 8 7 6 5 5 4 4 4 4 5 4 4 4 5 4 4 3 3 3 2 2 2 2 2 2 2 2 2 1 1 1 1 1 0 -0 -0 -0 0 1
13 14 15 14 13 14 14 13 14 14 14 13 12 12 12 12 12 12 12 13 13 13 13 14 13 12 11 11 10 10 10 10 10 10 9 9 7 5 4 4 3 4 4 4 5 4 3 4 5 4 4 3 3 3 2 2 2 2 2 2 2 2 1 1 1 2 1 1 0 0 -0 0 1 1
14 15 15 14 13 13 13 13 13 14 13 12 12 11 11 11 11 11 11 11 12 13 13 13 13 12 10 11 11 10 10 10 10 9 8 7 6 5 4 3 3 3 3 4 5 4 3 4 5 4 4 4 3 2 2 1 1 2 1 1 1 1 1 2 2 2 1 1 0 0 0 1 1 1
13 15 15 14 13 12 12 12 12 13 13 12 12 11 10 10 10 9 10 11 11 12 12 12 12 11 10 10 10 9 9 9 9 9 7 5 5 5 3 2 2 3 3 3 4 4 3 3 4 4 4 4 3 2 2 1 1 1 1 1 1 1 1 2 2 1 1 1 1 1 1 1 1 1
12 12 12 13 12 11 12 12 12 12 13 12 12 11 10 9 9 8 8 9 9 10 10 10 9 9 9 9 8 8 8 8 8 9 8 6 5 5 4 2 2 2 2 2 3 3 2 2 3 4 4 4 3 2 2 1 1 1 1 1 1 1 1 2 2 1 1 1 1 1 1 1 0 0
10 10 10 10 10 11 12 13 12 12 13 13 12 12 10 8 6 6 8 8 8 8 8 7 7 7 7 7 7 7 7 6 6 7 8 7 6 5 4 3 2 2 1 1 2 2 2 2 2 3 3 3 3 2 2 1 1 1 1 1 1 1 1 2 2 1 0 0 1 1 1 1 0 -0
8 8 8 9 10 11 12 12 11 12 13 14 13 13 12 9 6 6 8 8 8 8 7 6 6 6 5 5 6 5 5 5 5 5 6 6 5 5 4 3 3 2 1 1 1 2 2 2 2 2 2 2 2 2 2 1 1 0 1 1 1 1 2 2 1 1 0 0 0 1 1 1 0 -1
7 7 7 7 9 10 9 9 10 11 12 13 13 13 14 12 9 8 8 8 8 8 6 5 5 4 4 4 4 4 4 4 4 4 4 4 4 4 4 3 2 1 1 0 1 2 2 2 1 1 1 0 1 1 1 1 1 0 0 1 0 0 1 1 1 0 -0 0 0 1 0 0 -0 -0
6 7 7 7 7 8 8 8 9 10 11 12 12 12 13 12 10 9 8 8 8 6 5 4 4 3 4 3 3 3 3 3 3 3 3 3 3 3 3 3 3 2 1 1 1 1 1 1 1 1 0 -0 -0 -0 0 1 0 0 1 0 -0 -1 -1 -1 -1 -1 -1 -1 -0 -0 0 0 -0 -0
5 6 7 7 7 8 8 8 9 9 10 11 11 12 11 10 9 9 8 7 6 4 3 3 3 3 3 3 3 3 2 2 3 3 2 2 2 2 1 1 2 1 1 0 1 1 1 0 0 1 0 -0 -1 -0 -0 -0 0 0 1 1 0 -1 -1 -2 -2 -1 -1 -1 -1 -0 -0 -0 -0 -0
5 5 6 7 6 7 8 8 8 8 9 10 11 10 9 9 8 8 6 5 4 3 2 2 2 2 3 2 2 2 2 2 2 2 1 1 1 1 1 0 1 0 0 0 0 -0 -0 -0 -0 0 0 -0 -1 -1 -1 -1 -1 -1 -0 1 1 -0 -1 -2 -2 -2 -1 -1 -1 -1 -1 -1 -1 -1
5 5 5 5 5 5 6 6 6 7 8 9 9 9 8 8 7 6 5 4 4 3 2 2 2 2 2 2 2 2 2 1 1 1 1 1 0 0 0 0 0 0 -0 -0 -0 -1 -0 -0 -0 -0 -0 -0 -1 -1 -1 -1 -1 -2 -2 -1 -1 -1 -1 -2 -2 -2 -2 -1 -1 -1 -2 -1 -1 -2
4 4 4 4 4 4 5 5 6 5 6 7 7 7 7 7 6 6 5 4 3 2 2 2 2 2 2 2 2 1 1 1 1 1 1 0 0 0 0 0 -0 -1 -1 -1 -1 -1 -1 -1 -0 -0 0 -0 -1 -1 -1 -1 -2 -2 -2 -3 -2 -2 -2 -2 -2 -2 -2 -2 -2 -1 -1 -1 -1 -1
3 3 3 4 4 4 4 5 5 4 4 5 5 5 5 6 5 5 5 4 4 3 3 2 2 2 2 1 1 1 1 1 1 1 1 0 0 0 0 0 -1 -1 -1 -1 -1 -1 -1 -1 -0 -0 0 -0 -1 -1 -1 -2 -2 -2 -2 -2 -3 -3 -3 -2 -2 -2 -3 -3 -2 -2 -1 -1 -1 -1
2 3 3 3 4 4 3 3 3 3 3 4 4 4 4 4 4 4 4 4 4 3 3 2 2 1 1 1 1 1 1 1 1 1 1 1 0 0 0 0 -1 -1 -1 -1 -1 -1 -1 -1 -0 -0 -0 -1 -1 -1 -1 -2 -2 -3 -3 -2 -2 -3 -3 -3 -3 -3 -3 -3 -3 -2 -2 -1 -1 -2
3 3 3 3 3 3 2 2 2 2 3 3 3 4 4 4 4 4 4 4 3 3 3 2 1 1 1 1 1 1 1 1 0 1 1 1 0 0 0 -0 -1 -1 -1 -1 -1 -1 -1 -1 -0 -0 -1 -1 -1 -1 -1 -2 -2 -2 -3 -3 -3 -3 -3 -3 -3 -3 -3 -3 -3 -3 -3 -2 -2 -2
3 2 2 2 2 2 2 2 2 2 2 3 3 3 3 4 4 4 4 4 3 3 3 2 1 1 1 1 1 1 1 0 0 0 1 0 0 0 0 -0 -1 -1 -1 -1 -1 -1 -1 -1 -1 -1 -1 -1 -1 -1 -1 -1 -1 -2 -3 -3 -3 -3 -3 -3 -3 -3 -3 -3 -3 -4 -3 -3 -2 -2
2 2 2 1 1 2 1 1 1 2 2 2 2 3 3 3 4 4 3 3 3 3 2 2 2 2 1 1 1 1 1 0 0 0 0 0 0 0 -0 -1 -1 -1 -2 -2 -2 -2 -2 -2 -2 -2 -2 -2 -1 -1 -1 -1 -1 -2 -3 -3 -3 -3 -3 -3 -3 -3 -3 -3 -3 -3 -3 -3 -3 -2
1 1 1 1 1 1 1 1 1 2 2 2 2 3 3 3 3 4 3 3 3 3 2 2 2 2 2 1 1 1 1 0 0 -0 -0 -0 -0 -0 -1 -1 -1 -1 -2 -2 -2 -2 -2 -2 -2 -2 -3 -3 -3 -2 -2 -2 -2 -2 -3 -3 -3 -3 -3 -3 -3 -3 -3 -3 -3 -3 -3 -3 -3 -3
1 1 1 1 1 1 1 1 2 2 2 2 2 3 3 3 3 4 3 3 3 3 2 2 2 2 2 1 1 1 1 0 0 -0 -0 -0 -0 -1 -1 -1 -1 -1 -1 -2 -2 -2 -2 -2 -2 -3 -3 -3 -3 -3 -3 -3 -3 -3 -3 -4 -4 -3 -3 -3 -3 -3 -3 -3 -3 -3 -3 -3 -3 -3
1 1 1 1 1 2 2 2 2 2 2 2 2 3 3 3 3 3 3 3 3 2 2 2 2 2 2 1 1 1 0 0 0 -0 -0 -1 -1 -1 -1 -1 -1 -1 -1 -2 -2 -2 -2 -2 -3 -3 -3 -4 -4 -3 -4 -4 -4 -3 -3 -4 -4 -3 -3 -4 -4 -3 -3 -3 -3 -3 -3 -3 -3 -3
1 1 1 1 2 2 2 2 2 2 2 3 3 3 3 3 3 3 3 3 3 2 2 2 2 2 2 1 1 1 0 -0 -0 -0 -1 -1 -1 -1 -1 -1 -1 -1 -2 -2 -2 -2 -2 -3 -3 -3 -3 -4 -4 -4 -4 -4 -4 -3 -2 -3 -3 -3 -3 -4 -4 -4 -3 -3 -3 -3 -3 -3 -3 -3
1 1 1 1 2 2 2 2 2 3 3 3 4 4 3 3 3 3 3 3 2 2 2 2 2 2 1 1 1 1 0 0 -0 -0 -1 -1 -1 -1 -1 -2 -2 -2 -2 -2 -2 -2 -3 -3 -3 -4 -4 -4 -4 -3 -3 -3 -3 -2 -2 -3 -3 -3 -3 -4 -4 -4 -4 -3 -3 -3 -3 -3 -3 -3
0 0 1 1 2 2 2 2 2 3 3 4 4 4 3 3 3 3 3 3 2 2 2 2 1 1 1 1 1 0 0 -0 -0 -0 -1 -1 -1 -1 -2 -2 -2 -2 -2 -2 -2 -3 -3 -3 -4 -4 -4 -4 -3 -3 -3 -3 -3 -3 -3 -3 -3 -3 -3 -3 -4 -4 -4 -3 -4 -3 -3 -3 -3 -3
1 0 1 1 2 2 2 2 3 3 4 4 4 3 3 3 3 3 2 2 2 2 2 1 1 1 1 1 1 0 0 0 -0 -1 -1 -1 -1 -2 -2 -2 -2 -2 -2 -2 -2 -3 -3 -3 -4 -4 -4 -3 -3 -3 -4 -4 -4 -4 -4 -3 -3 -3 -3 -3 -3 -3 -3 -3 -3 -3 -3 -3 -3 -3
0 1 1 1 2 2 2 2 3 3 3 3 3 3 3 3 3 2 2 2 2 2 2 1 1 1 1 1 0 0 0 0 -0 -1 -1 -1 -1 -2 -2 -2 -2 -2 -2 -3 -3 -3 -3 -3 -3 -3 -3 -3 -4 -4 -4 -4 -4 -4 -4 -4 -3 -3 -3 -3 -3 -3 -3 -3 -3 -3 -3 -3 -3 -3
0 1 1 1 2 2 2 2 2 3 3 3 3 3 3 3 3 2 2 2 2 2 2 1 1 1 1 0 0 0 0 0 -0 -1 -1 -1 -1 -2 -2 -2 -2 -2 -3 -3 -3 -3 -3 -3 -3 -3 -4 -4 -4 -4 -4 -4 -4 -4 -4 -4 -4 -3 -3 -3 -3 -3 -3 -3 -3 -3 -3 -3 -3 -3
1 1 1 2 2 2 2 3 3 3 3 3 3 3 3 3 3 2 2 2 2 2 2 1 1 1 1 0 0 0 0 -0 -0 -1 -1 -1 -2 -2 -2 -2 -2 -3 -3 -3 -3 -3 -3 -3 -4 -4 -4 -4 -4 -4 -4 -4 -4 -4 -4 -4 -4 -4 -4 -4 -3 -3 -3 -3 -3 -3 -3 -3 -3 -3
Height
792 795 797 800 802 804 807 810 812 815 818 820 822 825 827 830 834 838 841 842 843 846 847 849 852 855 856 856 858 860 861 862 864 865 866 867 868 869 870 870 871 872 872 872 873 872 872 871 871 870 870 870 870 870 870 869 868 868 867 866 865 865 864 863 862 861 860 859 858 856 855 853 851 849
788 791 793 796 798 801 804 806 809 812 815 817 819 821 824 825 828 831 834 837 840 843 845 847 849 852 855 856 858 859 860 862 864 865 866 867 868 868 869 870 870 871 872 872 872 871 871 871 871 871 870 870 870 870 870 869 869 868 867 866 865 864 863 862 861 860 860 859 857 856 854 852 850 848
784 787 790 792 795 797 800 802 806 809 811 814 816 818 820 822 824 826 829 833 837 839 842 844 847 850 854 856 857 858 860 861 864 865 866 867 867 868 869 869 869 870 871 871 871 870 870 870 870 870 870 870 870 870 870 869 868 868 866 865 864 863 862 861 861 860 859 858 857 855 853 851 850 848
781 783 786 789 792 794 796 799 802 805 808 810 812 815 817 819 821 823 826 829 835 838 839 841 845 849 852 854 856 857 859 861 863 864 865 866 867 867 868 868 869 869 870 870 870 870 870 870 870 870 870 870 870 870 869 869 868 867 866 865 864 862 861 861 860 860 859 857 856 854 852 850 849 847
777 779 781 785 789 791 792 795 798 801 804 807 809 811 813 815 817 820 823 827 832 837 839 840 843 847 850 853 855 856 857 860 862 864 865 866 866 867 867 868 868 869 869 869 869 869 869 869 870 869 869 869 869 869 869 868 867 866 865 864 863 861 860 860 860 859 858 856 855 853 851 849 848 846
772 774 776 780 784 788 789 791 794 797 800 803 805 807 809 812 814 817 820 824 828 834 837 839 841 845 848 851 854 856 856 858 861 862 864 865 866 866 867 867 868 868 869 868 869 869 869 869 869 869 868 869 869 869 868 868 867 865 864 863 862 861 860 859 859 858 857 855 854 852 850 848 847 845
767 769 771 775 780 783 785 787 790 793 796 799 801 803 805 808 811 814 817 820 824 830 834 837 839 842 846 849 852 855 856 858 860 861 863 864 865 866 866 867 867 868 868 868 868 868 869 869 869 868 868 868 868 868 868 867 866 865 864 863 861 860 860 859 858 857 856 854 852 851 849 847 845 844
761 764 767 770 774 778 780 783 786 789 792 795 798 800 802 804 807 811 814 815 818 824 830 835 837 839 843 847 850 853 855 857 859 860 862 863 864 865 865 866 867 867 868 868 868 868 868 868 868 868 868 868 867 867 867 866 865 864 863 862 861 860 859 858 857 856 855 853 851 850 848 846 844 842
756 760 763 766 770 773 775 778 781 785 788 791 794 796 799 801 805 809 812 814 815 818 825 831 836 838 841 845 849 851 852 855 858 860 861 862 863 863 864 865 866 867 867 867 867 868 868 867 867 867 867 867 866 866 866 865 864 864 863 862 861 860 859 858 857 856 854 852 850 848 846 844 842 841
751 754 758 762 765 768 770 773 776 780 784 787 790 793 796 799 803 806 809 812 814 816 821 826 831 835 838 841 846 849 850 852 854 857 860 861 862 862 863 864 865 866 866 867 867 867 867 867 867 867 866 866 866 865 865 864 864 863 862 861 860 860 859 858 857 855 853 851 849 847 845 843 841 840
747 749 752 756 760 762 766 769 772 776 780 784 786 789 792 796 800 803 806 809 812 814 818 823 827 831 835 838 842 846 849 851 852 853 855 858 860 861 862 863 864 865 865 866 866 866 866 866 866 866 866 865 864 864 864 864 863 863 862 861 860 860 859 858 856 854 852 850 848 845 843 841 840 838
743 745 748 751 754 757 761 765 768 772 776 779 783 786 788 792 796 800 802 805 808 811 814 819 824 828 832 836 839 843 847 849 849 850 850 853 856 859 860 862 863 864 864 864 865 865 865 866 866 865 865 864 864 863 863 863 862 862 861 860 860 860 859 857 855 853 851 848 846 844 842 840 839 837
739 741 744 747 750 753 758 762 765 768 772 775 778 782 785 788 793 796 798 800 804 809 813 817 821 826 829 832 834 837 840 841 843 846 848 850 854 856 858 860 862 862 863 863 864 864 865 865 865 865 864 863 863 863 862 862 862 861 861 860 860 859 858 856 854 851 849 847 845 842 841 839 838 835
735 738 741 744 747 751 755 760 763 766 769 772 774 777 780 784 787 791 795 798 801 805 809 813 817 821 825 827 828 831 834 837 840 843 845 848 851 854 856 859 860 861 861 862 863 864 864 864 864 864 863 862 862 862 862 862 861 861 860 860 859 858 857 854 852 850 848 845 843 841 840 838 836 834
731 734 738 740 744 749 753 758 761 764 766 768 771 773 775 778 781 784 789 795 799 802 805 809 813 815 820 824 826 829 832 835 838 840 842 845 848 851 853 856 858 859 860 861 862 863 863 863 863 862 862 862 862 861 861 861 861 861 860 860 859 857 855 853 851 848 846 844 842 840 839 837 834 832
727 731 734 737 742 746 750 754 758 761 763 765 768 772 774 776 778 779 781 785 789 793 798 805 810 813 816 820 824 826 828 832 835 838 841 843 845 848 850 853 855 857 858 859 860 861 862 862 861 861 861 861 861 861 861 861 861 860 860 859 857 855 853 851 849 847 845 842 840 839 837 835 833 830
723 726 730 733 738 743 747 751 754 757 760 762 766 771 774 776 779 779 780 781 783 785 790 797 803 807 811 814 817 821 824 828 832 836 839 841 844 846 849 851 853 855 856 858 859 860 860 860 860 860 860 860 860 861 860 860 860 860 859 858 856 854 852 850 848 846 843 841 840 838 836 834 831 828
719 722 725 730 734 739 743 746 750 754 756 759 764 768 772 776 778 779 781 783 785 787 790 793 797 802 806 809 813 819 823 827 830 833 836 839 842 845 848 850 852 853 855 856 857 857 858 859 859 859 859 860 860 860 860 860 859 859 858 856 854 852 850 848 846 844 842 840 839 837 835 832 829 826
715 717 721 726 731 735 738 742 746 750 752 756 761 766 770 775 777 778 781 783 785 788 791 794 797 801 806 809 814 819 824 827 830 832 835 838 841 844 846 848 850 852 853 854 855 856 857 857 858 858 858 859 859 859 859 859 859 858 857 855 853 851 849 847 845 842 841 839 837 835 833 830 826 824
711 714 717 723 729 732 735 739 744 747 750 754 760 764 768 772 775 778 781 784 786 789 792 796 799 803 808 812 816 820 823 827 830 832 836 839 840 842 845 847 849 850 852 853 854 855 856 856 857 857 857 857 858 859 859 858 858 857 856 854 852 850 848 845 843 841 840 838 836 834 831 827 824 821
707 712 715 720 726 730 733 737 741 745 748 752 757 762 767 770 773 777 781 784 787 790 793 797 802 806 810 815 818 821 824 827 829 831 834 837 839 840 842 845 848 850 851 853 854 854 855 855 855 856 856 856 857 858 858 858 858 857 855 853 851 849 847 844 842 840 839 837 835 832 829 825 822 819
705 710 715 719 724 728 731 735 739 743 746 749 753 758 763 767 772 776 780 782 786 791 795 799 804 809 813 816 818 822 825 827 830 832 833 835 837 838 840 844 848 850 852 853 853 854 854 854 854 854 854 855 857 857 857 858 857 856 854 852 850 848 845 843 841 839 838 836 833 830 827 824 820 817
706 711 715 719 723 728 732 735 738 742 744 745 749 753 758 764 770 775 778 780 784 790 795 800 805 809 813 816 819 822 825 829 832 833 834 835 836 837 840 843 847 850 852 853 853 853 853 853 853 853 854 855 856 856 857 857 856 855 853 851 848 846 844 842 840 839 837 835 832 828 826 822 819 816
706 712 716 720 724 729 732 733 736 740 742 742 744 748 752 758 767 773 777 780 784 789 795 800 805 809 813 817 820 823 827 830 833 835 836 836 836 838 840 843 846 849 851 852 852 852 851 852 852 852 853 854 855 856 856 856 855 854 852 850 847 844 842 841 839 838 835 833 830 827 824 821 818 815
704 710 715 720 724 728 731 733 736 739 741 741 742 745 747 753 761 769 775 780 784 789 794 800 806 810 814 818 822 825 829 832 834 835 835 836 837 839 841 844 846 848 850 851 852 851 851 851 852 853 853 854 854 855 854 854 854 853 851 848 846 843 842 840 839 836 834 831 828 825 823 821 818 816
703 708 714 719 723 726 730 734 738 741 743 745 746 747 749 753 760 767 772 778 784 789 796 802 807 812 815 819 824 827 830 833 834 834 835 836 838 840 842 844 846 848 850 851 851 851 851 852 852 853 853 853 854 854 853 852 852 851 849 847 845 843 842 841 839 836 833 830 827 825 823 820 818 815
704 709 713 718 723 725 729 734 739 742 744 746 748 750 752 756 761 766 772 778 784 791 798 803 808 813 816 820 825 828 831 832 833 833 835 837 839 841 843 845 847 848 850 850 851 851 851 852 853 853 853 853 853 853 853 852 850 848 846 845 844 843 843 841 839 836 832 829 827 824 822 820 817 814
703 709 713 718 723 726 729 735 740 742 743 745 747 751 754 758 762 767 773 780 786 792 799 803 808 814 817 821 825 828 830 831 832 834 836 838 841 842 844 846 847 849 850 850 851 851 852 853 853 853 853 854 854 854 853 852 850 848 845 843 843 842 842 840 838 835 831 828 826 823 820 818 815 813
705 710 715 720 725 728 730 735 741 745 745 746 748 752 756 760 765 769 775 781 787 792 799 804 809 814 819 822 825 828 830 831 832 834 836 839 842 844 845 846 848 849 850 851 851 852 853 853 854 853 853 853 853 853 853 852 851 849 847 844 843 842 841 840 837 834 831 827 825 823 820 817 814 812
708 715 719 722 727 733 736 739 743 747 749 750 753 757 760 763 768 772 776 781 787 793 799 805 810 815 819 823 825 828 830 831 832 834 836 839 843 845 846 847 848 850 851 851 852 853 853 853 853 853 852 852 852 852 852 851 850 848 847 846 844 842 840 839 836 833 830 827 825 822 820 817 814 812
711 718 724 726 729 736 741 744 746 749 752 754 757 762 765 768 772 776 779 783 788 794 800 805 810 815 819 822 825 828 829 831 833 835 837 840 843 845 846 847 848 850 851 852 852 853 853 853 852 852 851 851 851 850 851 850 849 848 846 845 844 842 840 838 835 833 831 828 824 821 819 816 814 811
714 719 725 729 733 739 744 748 751 753 755 758 760 764 767 771 775 779 783 787 791 796 801 806 810 815 819 822 824 826 828 830 833 836 838 840 843 845 846 847 849 851 852 852 853 853 853 852 852 851 850 850 849 849 850 849 849 848 846 844 843 841 840 837 835 833 831 828 824 820 818 815 813 811
716 722 726 731 736 742 746 750 752 754 758 761 763 766 769 773 778 782 785 789 794 798 802 806 810 814 818 820 823 825 827 830 833 836 838 840 843 844 846 847 849 851 852 852 853 853 852 852 851 850 850 849 848 848 849 849 848 848 846 844 842 840 838 836 834 832 829 827 824 821 818 815 813 810
719 726 730 736 741 744 748 751 753 755 759 761 764 768 773 776 780 785 788 792 796 799 803 806 809 813 816 818 821 824 826 830 833 836 838 840 842 843 845 847 849 851 852 852 852 852 852 851 850 850 849 848 847 847 848 848 848 847 845 844 842 839 837 835 833 830 828 826 824 822 818 815 812 809
726 731 734 741 746 748 750 754 755 756 759 762 765 770 775 780 783 787 790 794 797 801 804 807 810 812 814 817 821 823 826 829 833 836 838 840 841 843 845 847 849 850 851 852 852 852 851 850 849 848 848 847 847 847 847 847 847 846 843 842 840 838 835 833 832 830 828 826 824 822 819 815 811 808
732 738 739 743 748 751 754 758 759 760 761 764 768 772 776 782 786 789 792 796 800 802 805 807 809 812 814 817 821 824 826 829 833 836 838 840 841 843 845 846 848 849 850 851 851 851 851 849 848 847 847 847 847 847 847 847 846 845 843 840 838 836 834 832 831 829 827 826 824 822 819 815 811 807
738 743 745 746 749 753 758 761 763 764 765 768 772 775 778 782 787 791 795 799 802 804 806 807 809 811 815 818 821 825 828 830 833 836 838 840 841 843 844 846 847 848 849 850 850 850 849 849 848 847 846 846 846 846 845 845 845 845 844 841 839 837 834 832 830 829 827 825 823 821 818 814 811 807
745 748 750 751 752 756 762 765 766 767 769 772 775 778 781 784 788 793 797 800 803 805 807 808 809 812 815 818 821 825 828 831 834 836 838 840 841 843 844 846 847 848 849 850 850 849 849 848 847 847 847 847 846 845 844 843 843 843 843 842 839 836 834 832 830 828 826 824 822 820 817 813 810 806
752 753 754 755 757 762 766 768 769 770 772 775 778 780 783 786 790 794 797 800 803 805 807 808 810 813 816 819 822 825 829 832 834 836 838 840 841 842 844 845 847 848 849 849 850 849 848 848 847 847 847 847 846 845 844 842 841 841 841 840 838 836 833 832 830 827 825 824 821 818 815 812 808 805
756 757 758 760 764 768 770 771 772 773 775 778 781 783 785 787 790 794 797 800 802 805 807 809 812 815 817 820 823 826 829 832 835 836 838 840 841 842 844 845 846 848 849 849 849 849 848 848 847 847 846 846 846 845 844 842 840 839 839 838 837 835 833 831 830 828 825 823 820 817 813 810 806 802
758 759 761 764 768 771 773 774 775 776 778 781 784 786 787 789 791 794 797 799 802 805 808 811 813 816 819 821 824 827 830 832 835 836 837 839 840 842 843 845 846 847 848 849 849 848 848 847 847 846 846 845 845 844 843 842 839 838 837 836 835 834 833 831 829 828 825 822 819 816 813 810 805 801
760 761 764 767 770 772 774 775 777 779 781 784 786 788 790 791 793 796 798 801 803 806 808 811 814 817 819 822 824 827 829 832 834 835 837 838 839 841 842 844 845 846 847 848 848 848 847 846 846 845 845 845 844 844 843 843 841 838 835 834 832 831 831 830 828 827 824 822 819 816 813 809 805 801
762 764 766 768 770 773 775 777 779 781 784 786 789 790 791 792 794 797 799 801 804 806 809 812 815 817 820 822 825 827 829 831 833 834 836 837 838 840 841 843 844 846 847 847 847 847 846 845 845 845 844 844 844 843 843 843 842 839 837 834 831 828 827 826 825 825 823 821 819 817 814 810 806 803
764 766 767 769 771 774 776 778 780 783 786 788 790 792 793 794 796 798 800 802 804 807 810 812 815 817 820 822 825 827 829 831 833 834 835 836 838 839 841 842 844 845 846 846 846 845 845 844 844 844 844 843 843 843 843 842 841 840 838 835 833 830 827 824 822 820 819 818 817 815 813 811 809 806
766 767 769 770 772 775 777 779 782 784 787 789 791 793 794 796 797 799 801 803 806 808 811 813 815 817 820 822 824 827 829 831 832 834 835 836 837 839 840 842 843 844 845 845 845 844 843 843 843 843 843 843 842 842 842 842 841 839 837 835 833 831 829 826 823 820 818 817 815 814 811 809 808 805
Wind_Speed
40 40 40 38 36 35 35 35 35 32 31 29 29 30 28 21 11 5 7 7 7 12 16 13 12 16 23 27 28 26 25 23 20 18 17 16 15 14 12 11 10 10 10 9 9 9 8 7 7 6 5 4 3 2 1 1 2 3 4 6 8 10 12 14 15 16 15 14 15 16 17 19 20 20
40 39 39 39 36 35 36 36 36 33 32 31 30 30 32 30 22 11 7 7 10 16 16 15 17 20 24 28 28 26 24 21 19 17 17 16 16 15 13 12 12 11 10 9 9 8 7 6 6 5 4 3 2 1 0 1 2 3 4 7 9 11 13 15 16 16 15 14 15 17 18 19 19 19
39 38 38 37 36 35 36 37 35 34 33 31 31 31 32 34 31 24 14 7 10 19 20 17 19 23 27 29 28 26 23 20 18 17 17 17 16 16 14 13 12 11 10 9 8 7 6 5 5 5 3 2 1 0 0 1 2 4 6 8 10 12 14 16 16 15 14 14 15 17 18 18 18 18
39 37 36 35 36 36 36 36 36 35 34 32 32 32 32 34 33 30 21 10 8 16 24 23 20 23 29 31 29 26 23 21 19 18 18 17 17 16 15 13 12 11 10 8 7 6 5 4 5 4 3 2 1 0 1 2 4 6 8 10 11 13 14 15 15 13 13 14 15 16 17 17 17 18
40 39 38 36 37 38 37 37 36 36 35 34 33 33 34 34 33 30 23 15 11 11 19 25 23 26 31 31 28 27 25 23 21 20 19 18 17 16 15 14 12 10 9 7 6 5 5 4 5 4 3 1 1 1 2 4 6 8 10 11 12 13 14 14 13 12 12 13 14 15 16 17 17 17
40 40 41 40 39 39 39 38 37 37 36 34 34 35 35 33 32 31 27 20 16 15 18 24 26 29 33 31 29 27 25 25 24 22 20 18 18 16 15 15 13 10 8 6 6 5 4 4 4 4 3 1 1 2 4 6 8 10 11 12 12 13 12 12 11 12 12 13 14 15 16 17 17 18
39 39 41 42 42 40 40 39 39 38 37 35 34 34 36 36 32 30 30 27 22 20 21 26 30 32 33 31 30 27 25 25 24 23 21 19 18 17 16 15 14 11 8 7 6 5 5 5 4 4 3 1 1 3 5 7 9 10 10 10 11 11 11 10 11 11 12 13 15 16 17 18 18 18
40 39 40 42 42 41 40 40 39 38 36 35 34 33 35 39 34 29 30 33 31 27 24 25 31 34 32 30 30 28 26 25 24 23 21 19 17 17 17 16 14 12 9 7 6 6 5 5 4 3 2 1 2 4 6 8 9 9 9 9 10 10 9 10 10 11 13 14 15 16 17 18 18 19
42 41 42 44 43 41 41 40 39 38 36 35 34 33 34 36 35 32 30 33 35 33 29 26 27 31 31 30 30 29 28 27 24 22 20 18 17 16 17 17 15 12 10 8 8 7 6 5 4 3 2 1 3 5 7 8 8 7 8 8 9 9 9 10 11 12 13 14 16 17 18 18 18 19
44 45 45 45 43 41 41 41 39 38 37 35 32 33 34 35 35 34 32 32 34 35 33 31 30 31 31 31 29 28 29 29 27 24 20 18 17 18 19 18 15 12 11 10 9 8 6 5 4 2 1 2 3 5 6 6 6 6 7 8 8 8 9 10 11 12 14 15 16 17 17 18 18 19
44 45 46 45 44 43 42 42 41 38 37 36 34 33 35 36 36 35 34 33 33 34 33 31 30 31 32 32 31 29 28 29 28 28 26 22 20 18 18 17 15 13 11 11 9 7 6 4 3 2 2 3 4 5 5 4 5 5 6 7 8 8 9 10 12 13 14 16 16 17 17 18 18 19
45 45 45 46 46 45 44 43 43 41 39 38 36 35 36 38 37 37 36 35 34 34 33 30 30 30 30 31 31 31 30 29 28 29 29 26 24 21 18 16 15 13 12 11 10 7 5 4 3 2 3 4 4 3 3 3 4 5 6 7 8 9 10 11 12 14 15 16 16 17 17 18 19 20
45 44 43 44 45 45 45 45 44 43 42 40 38 36 37 39 39 38 37 35 34 32 30 28 29 28 28 31 34 35 34 33 31 29 27 26 24 22 19 16 14 13 12 11 10 7 6 5 4 3 3 4 3 3 2 2 3 5 6 7 8 10 11 12 13 14 15 16 17 17 18 19 20 21
42 43 42 44 45 44 45 45 44 45 44 43 42 40 40 41 42 39 36 35 36 35 31 30 32 29 27 32 36 36 34 33 32 30 27 26 25 22 18 14 12 12 12 11 10 7 5 5 4 3 3 3 3 2 1 2 3 5 6 8 9 11 12 13 14 15 16 16 17 17 18 19 20 21
41 41 41 43 43 43 44 44 43 43 44 43 42 42 44 46 47 45 41 38 37 35 30 30 32 30 29 32 34 34 32 31 31 30 28 27 26 24 19 13 10 11 11 11 9 7 4 3 3 3 2 3 3 2 0 2 3 5 7 8 10 11 12 14 15 16 16 16 17 18 19 20 21 21
42 42 41 41 41 41 42 42 42 41 41 40 39 40 43 47 48 49 48 46 43 40 35 32 31 31 32 34 35 35 34 33 31 29 27 26 26 24 19 14 12 10 10 10 9 6 3 2 2 2 2 3 3 1 0 2 3 5 7 9 10 12 13 14 15 16 17 17 18 19 19 20 21 21
44 44 42 41 40 39 38 38 39 39 37 35 36 38 41 43 44 45 46 46 46 45 42 40 39 38 38 39 39 38 37 34 31 28 26 25 24 22 18 16 13 10 8 9 8 6 3 1 2 1 1 3 3 1 1 2 4 6 8 10 11 12 13 14 16 17 18 18 18 19 20 21 21 21
45 46 44 41 40 39 37 36 37 38 38 37 37 38 38 38 38 38 38 39 40 40 40 41 42 42 41 41 41 37 33 32 31 29 27 24 23 20 17 15 12 9 7 7 6 5 2 1 2 0 1 4 4 1 2 3 5 7 9 10 11 12 13 15 17 18 18 18 19 20 21 21 21 21
48 48 46 43 41 40 38 36 37 39 40 40 39 37 36 34 32 32 32 34 35 36 35 36 38 39 38 36 36 34 30 28 27 24 22 22 22 21 18 14 11 7 5 5 5 4 2 1 1 1 1 4 4 2 2 3 6 8 9 11 12 12 14 16 18 19 19 19 20 20 21 21 21 21
48 48 47 44 42 41 39 37 39 41 42 41 40 37 34 31 29 27 25 26 28 30 31 29 30 32 31 30 31 30 27 24 21 20 19 20 22 21 18 13 10 6 4 3 4 5 3 1 0 2 1 5 6 5 4 4 7 10 10 11 12 12 14 18 19 20 19 19 20 21 21 21 22 22
46 46 47 47 44 41 41 40 41 43 44 43 42 39 35 32 29 25 22 21 22 24 25 24 24 26 27 26 27 25 22 20 20 21 23 23 23 22 18 12 8 7 4 2 3 4 3 1 3 4 1 8 9 7 7 5 8 11 12 12 13 14 16 18 20 21 20 19 19 20 20 22 23 24
42 42 43 46 44 42 44 45 45 46 47 47 46 43 39 35 32 30 27 26 25 24 24 25 26 26 25 24 23 20 18 17 16 18 21 23 22 21 17 13 11 8 3 2 2 3 3 2 5 5 3 9 10 6 6 7 8 12 15 14 14 15 17 19 21 21 21 19 18 19 20 22 24 25
36 37 37 41 43 43 46 47 47 48 50 50 48 46 43 40 37 35 35 36 37 35 34 33 31 28 26 24 23 20 18 16 13 12 15 19 20 19 17 16 13 7 3 2 2 2 3 3 6 6 5 5 7 6 1 7 9 13 17 17 16 17 18 20 22 22 22 21 19 19 20 22 24 27
34 33 35 39 43 46 49 50 50 50 51 52 51 49 47 45 42 41 41 41 41 40 38 35 32 30 28 25 23 22 19 16 14 12 12 14 14 15 17 18 13 6 4 4 2 2 4 4 5 6 6 3 2 5 5 5 9 14 18 19 19 20 21 23 23 23 23 22 20 19 20 21 24 28
38 37 37 39 43 47 48 48 48 48 48 50 50 49 49 49 47 46 44 42 40 40 38 36 34 31 28 25 23 22 20 18 17 16 15 13 10 10 14 16 13 9 8 5 2 3 4 4 4 5 6 4 2 6 9 6 8 15 19 20 20 20 22 24 24 25 25 24 23 21 21 22 24 26
39 40 40 41 43 47 47 44 42 43 44 45 45 44 47 50 49 47 46 43 42 41 40 38 35 32 30 28 25 23 22 20 18 16 15 14 12 11 10 11 11 11 9 5 3 4 4 4 4 5 7 6 6 11 12 8 9 17 20 20 19 19 21 23 24 25 27 26 25 23 21 22 23 24
38 39 41 43 44 46 45 42 40 42 43 43 43 44 48 50 49 48 47 45 44 43 40 39 37 33 31 30 27 25 22 19 17 16 15 14 14 14 13 10 9 9 8 6 5 5 4 4 4 5 7 8 9 11 11 10 13 20 23 22 20 19 21 23 24 26 27 27 27 26 24 24 25 25
40 40 42 43 42 42 42 40 39 40 41 42 45 48 50 49 48 48 47 45 44 42 39 37 36 34 31 30 27 24 22 20 18 18 18 16 14 14 13 12 10 8 7 5 4 4 3 3 3 4 5 7 8 8 8 9 14 20 23 24 23 20 21 23 25 26 27 28 28 28 28 28 29 30
41 41 41 40 38 38 39 38 36 36 40 44 47 49 49 48 47 47 47 45 43 40 37 37 36 33 30 28 26 24 22 21 21 20 19 18 15 13 13 12 10 8 7 5 4 3 2 2 2 3 5 6 8 8 6 7 12 17 19 21 22 21 21 23 25 25 27 28 28 29 29 29 30 31
40 39 39 39 36 34 35 37 38 40 43 46 47 46 46 46 45 45 45 44 41 40 38 38 36 33 30 28 25 23 22 21 21 20 20 18 16 13 11 12 11 9 6 4 3 2 2 3 4 4 5 7 8 6 2 4 11 15 16 18 19 18 20 23 24 25 26 28 28 29 28 28 29 30
41 40 38 38 37 35 35 38 41 44 45 44 43 41 41 41 41 41 42 42 41 41 40 39 37 34 31 29 26 24 23 22 20 18 17 18 16 12 10 11 12 10 6 4 3 3 3 4 6 5 5 7 6 5 3 3 9 13 15 17 17 17 19 23 24 25 25 27 28 29 28 28 29 29
41 41 40 39 38 38 39 39 40 40 40 39 39 38 38 39 38 38 39 40 40 40 40 39 37 34 31 29 26 24 23 22 19 16 15 15 14 12 10 12 13 10 6 4 3 4 4 6 6 4 4 6 5 7 7 1 7 11 14 17 18 18 20 23 24 25 25 26 28 30 30 29 29 30
42 40 39 39 38 38 38 36 36 36 35 36 36 37 37 37 37 37 39 39 40 40 40 39 37 34 31 29 26 24 24 22 19 16 14 14 13 11 11 12 12 9 6 5 4 5 7 8 8 5 2 5 5 8 9 3 7 12 13 16 19 21 21 23 24 25 26 26 27 27 29 30 30 30
41 37 35 33 33 34 33 32 33 35 35 35 36 36 36 37 37 37 38 39 39 39 39 38 37 34 32 29 27 25 24 22 19 15 14 13 12 11 12 12 11 9 7 6 6 7 9 11 11 9 7 3 3 7 9 5 8 14 14 14 19 22 22 23 25 25 25 26 24 23 24 28 30 31
33 31 31 29 27 29 29 28 29 33 34 35 36 36 35 35 36 37 37 38 38 37 37 37 35 32 30 28 26 25 24 22 19 16 14 13 12 11 11 11 10 8 7 7 8 9 10 12 14 14 13 9 5 1 5 6 6 13 16 16 19 22 23 24 25 24 25 26 24 21 21 24 28 30
30 27 29 28 26 27 27 26 27 30 33 35 36 36 36 34 35 36 36 36 36 36 36 35 32 30 28 26 25 24 23 21 20 17 14 13 12 11 10 9 8 8 7 8 9 10 10 13 15 15 14 9 5 3 2 4 5 8 14 18 20 22 23 24 25 25 25 26 25 22 20 21 25 29
28 26 27 28 28 28 26 25 26 29 32 33 34 35 35 35 35 35 35 33 33 33 33 32 30 28 26 25 24 22 20 20 19 17 15 13 12 10 9 9 7 7 7 8 9 10 10 12 14 15 13 7 2 2 5 4 3 6 10 15 19 20 21 23 24 25 25 25 25 24 23 23 25 27
26 26 26 27 29 29 26 26 27 29 30 31 32 34 35 35 35 35 33 31 31 31 30 29 28 26 25 24 24 22 20 19 18 17 15 13 12 11 9 8 7 6 6 7 8 9 10 10 11 12 11 8 4 4 6 9 12 12 11 13 17 19 19 21 23 25 25 25 25 25 25 25 26 26
27 27 27 28 29 29 27 27 29 30 30 31 33 34 35 36 36 34 32 30 29 29 28 27 26 25 24 23 22 21 21 20 18 17 15 12 11 10 9 8 6 5 5 6 7 8 8 9 9 9 9 7 6 7 10 14 18 17 14 12 14 18 20 21 22 24 25 25 25 25 24 24 25 26
27 28 28 28 28 27 26 27 28 30 31 31 32 34 35 36 35 32 30 29 28 28 27 26 25 24 23 21 20 20 20 19 17 16 14 13 11 10 9 8 6 5 4 5 6 6 6 7 7 6 6 6 7 10 13 15 18 18 16 13 13 16 18 19 20 22 23 24 24 23 23 24 26 25
27 27 28 28 28 27 26 26 27 28 29 30 30 31 32 32 31 29 28 28 28 27 27 25 24 23 21 20 20 20 20 18 17 15 13 12 11 10 9 8 6 4 3 4 5 5 5 5 5 4 5 6 8 10 11 13 16 20 21 18 16 16 15 16 18 19 21 23 23 21 21 24 25 24
27 27 27 27 27 27 27 27 27 27 27 28 28 29 28 27 26 26 26 26 26 26 26 24 23 21 20 19 19 19 19 18 16 14 13 12 11 10 9 7 5 4 3 4 4 4 4 3 3 3 4 6 8 9 9 11 15 20 23 22 21 20 17 16 17 18 19 21 21 20 21 24 23 22
23 25 25 24 24 24 24 24 25 25 26 26 27 27 26 26 25 25 26 26 26 25 24 24 22 20 19 19 19 18 17 16 15 14 12 11 10 10 8 6 5 3 2 3 3 4 3 2 3 3 3 4 6 8 9 11 15 18 21 23 24 24 22 20 20 19 19 20 20 20 21 22 21 22
19 21 21 21 21 21 21 21 22 23 24 25 25 25 25 25 24 24 25 25 25 24 23 22 21 19 19 19 19 16 14 13 12 12 11 11 9 8 7 6 4 2 1 2 3 3 3 2 3 4 4 5 7 8 9 12 14 16 18 20 21 23 24 24 24 25 24 23 23 24 24 23 22 23
16 18 19 20 20 20 20 20 20 21 22 23 24 24 24 23 22 22 23 23 24 23 22 21 20 19 19 19 18 16 14 13 12 11 10 10 9 7 6 5 3 1 0 1 3 3 3 3 3 4 5 6 7 8 9 11 13 15 17 19 20 21 22 23 25 26 26 25 25 27 27 25 24 25
Wind_Direction
215 214 212 212 212 211 209 210 213 216 216 212 205 198 192 188 180 176 193 186 170 181 186 179 178 188 182 171 166 168 166 165 167 169 167 161 153 150 148 141 134 125 115 109 101 99 111 135 149 153 152 144 136 137 110 13 0 5 0 356 354 350 351 353 353 350 346 343 343 345 347 348 352 355
214 213 213 212 211 210 209 211 213 214 216 212 207 205 202 197 192 186 189 194 177 173 182 191 188 183 177 169 165 166 165 162 165 166 163 158 151 147 145 142 137 130 123 116 107 100 108 131 152 160 160 152 144 143 38 0 343 346 346 348 348 348 350 350 349 347 344 343 343 344 346 349 354 357
213 212 211 210 210 209 209 211 212 213 215 213 208 207 204 201 199 195 187 188 185 179 181 190 194 185 176 171 166 164 162 160 163 165 160 155 151 148 146 145 143 138 133 127 116 103 101 125 153 158 159 161 151 143 336 326 332 338 342 345 346 347 348 345 344 343 342 342 343 345 348 350 355 357
212 209 206 208 211 210 210 211 212 213 214 213 210 208 205 203 203 199 192 178 163 181 188 188 187 183 176 171 168 165 160 159 162 163 161 156 153 151 150 149 149 146 143 137 125 111 106 127 154 159 158 157 164 273 318 328 335 339 341 343 343 344 344 341 339 340 341 343 345 348 350 350 354 357
212 208 205 209 214 212 211 211 212 214 215 214 212 210 207 205 204 201 195 176 145 159 184 185 181 178 175 171 170 167 162 160 161 161 159 157 155 154 153 153 155 156 154 146 134 124 124 142 157 163 166 163 200 299 328 334 336 339 339 339 340 340 340 339 339 340 343 347 348 349 349 349 353 355
211 207 204 210 216 214 212 213 213 215 216 215 213 211 209 206 205 203 196 177 154 149 166 174 173 174 175 172 172 172 167 163 163 161 160 159 158 157 157 159 164 167 164 154 145 138 140 157 168 170 179 192 261 317 330 334 335 336 335 336 339 341 342 343 344 344 346 348 347 347 347 346 348 350
210 206 203 208 214 213 213 214 215 216 217 216 214 212 210 209 206 204 198 185 166 152 157 168 168 168 174 174 172 172 170 165 165 165 164 165 164 163 166 170 171 172 171 161 152 149 151 163 176 181 190 218 292 323 331 334 334 333 334 339 344 348 350 349 347 346 346 346 345 345 345 343 344 346
209 207 206 209 211 210 211 213 215 216 217 216 214 210 210 210 206 203 202 195 179 159 153 166 169 168 171 174 171 170 168 166 168 169 168 169 170 169 173 177 173 169 170 164 155 153 158 164 174 184 194 237 308 328 333 333 332 335 341 349 353 356 355 350 346 344 343 343 343 344 343 341 342 344
207 206 206 209 210 208 209 212 214 215 216 216 213 208 206 206 203 204 204 195 182 168 158 160 166 168 169 171 172 173 170 166 167 170 170 170 169 166 168 172 171 167 167 165 160 158 160 164 171 182 201 278 320 330 333 331 335 344 352 356 359 358 353 347 343 342 342 343 344 344 343 342 344 344
207 206 206 208 210 209 209 211 213 214 214 213 209 205 203 201 201 202 200 189 178 171 164 159 160 167 169 168 171 178 179 174 169 165 162 162 164 162 161 162 164 167 168 162 162 163 161 166 177 190 229 310 327 330 331 334 344 354 358 359 357 353 348 344 341 342 343 344 344 345 345 346 348 347
207 206 207 208 209 210 211 213 213 213 212 211 210 207 202 199 198 197 193 185 175 167 161 159 161 165 169 169 170 176 181 178 173 169 162 156 157 161 162 162 162 167 168 163 162 165 164 172 190 212 275 310 322 325 326 339 353 359 358 356 352 347 344 342 341 342 343 344 346 347 349 351 351 350
208 207 207 208 210 211 213 216 216 214 212 211 210 207 203 198 193 189 185 178 171 164 158 158 161 162 164 168 168 171 175 174 174 176 171 163 161 163 164 164 167 171 172 168 166 168 172 185 211 241 286 303 304 306 318 345 358 1 357 351 346 343 341 340 340 342 345 347 350 352 354 354 352 350
209 208 207 208 211 214 215 218 218 216 215 213 209 203 197 192 187 183 180 171 162 157 154 155 160 161 164 167 167 169 177 179 176 176 174 167 165 167 164 163 171 177 178 178 177 180 191 209 229 253 280 287 278 276 306 353 0 359 353 346 341 339 339 340 341 345 349 352 355 357 356 353 351 350
207 207 207 208 211 215 217 218 219 219 219 219 216 209 199 191 184 178 172 166 162 160 160 162 164 165 169 173 173 174 180 182 177 174 174 168 164 165 162 157 166 177 183 188 187 187 203 224 239 256 273 263 241 237 298 7 4 357 349 342 338 338 339 342 346 350 354 356 358 358 355 352 351 350
203 203 205 207 209 213 216 217 219 220 218 218 217 214 207 200 193 185 174 169 169 170 168 168 170 170 172 177 178 177 178 179 177 176 177 173 168 168 166 158 162 175 185 192 191 187 197 229 245 254 252 230 217 212 3 19 3 352 345 339 337 339 342 346 351 355 357 358 358 356 353 351 350 349
198 199 202 203 206 211 213 214 216 215 213 211 208 207 205 200 197 195 189 183 181 177 169 168 174 177 176 176 180 181 178 177 178 178 181 180 178 178 174 164 162 172 183 191 190 183 180 217 245 255 233 209 204 198 44 16 359 348 343 340 340 342 346 351 356 359 360 359 357 354 351 350 349 348
192 194 195 197 202 208 209 208 209 206 201 197 194 193 193 191 192 195 195 193 193 188 179 178 182 185 183 181 183 185 182 177 175 176 179 183 183 182 177 169 164 167 179 188 186 175 173 213 218 246 240 204 197 176 38 6 356 349 343 342 343 347 351 356 0 2 1 358 355 351 350 349 348 348
191 191 192 194 198 202 204 202 201 197 189 183 181 181 182 184 188 190 191 192 195 193 189 189 188 188 190 188 184 183 182 181 181 179 179 181 181 178 171 164 161 162 173 188 184 169 174 217 187 189 242 198 190 148 45 8 356 353 348 346 347 350 355 360 1 3 1 357 352 350 349 349 348 347
192 192 194 197 197 198 200 198 194 190 183 174 171 170 171 175 179 180 183 188 191 191 192 193 190 188 190 189 182 177 181 185 185 184 183 183 178 168 158 152 149 149 163 186 181 163 176 229 158 101 211 186 169 115 53 18 4 360 355 353 353 354 358 1 1 2 0 355 350 349 349 349 347 346
191 193 196 199 200 198 196 193 192 188 179 169 163 161 160 163 166 166 173 182 188 190 190 191 190 185 183 182 177 174 177 179 178 176 171 172 171 162 149 142 141 138 144 182 181 163 167 253 9 25 250 183 152 97 59 27 11 9 4 359 358 359 1 2 0 0 359 355 351 350 349 348 346 345
187 192 197 199 199 196 191 188 185 184 178 168 162 156 151 151 151 149 156 166 173 180 180 177 176 172 167 169 169 168 170 173 177 174 165 166 171 162 148 139 140 143 148 177 177 152 131 356 347 4 173 174 153 99 59 31 7 9 10 3 359 2 3 2 1 359 358 355 351 350 350 349 346 346
181 187 193 196 195 189 185 181 178 179 176 167 160 155 148 144 140 138 143 146 146 149 151 149 150 151 153 156 156 156 161 167 178 184 175 172 173 165 156 151 144 141 150 168 165 139 106 25 355 17 105 161 164 135 58 29 6 6 11 7 2 4 4 2 0 359 358 357 352 350 351 350 349 350
174 180 185 189 188 184 182 180 177 178 176 168 161 157 148 138 135 138 141 139 136 136 135 136 139 140 142 145 145 145 150 153 164 186 186 179 175 169 165 162 151 143 157 174 170 143 110 55 13 29 69 134 177 193 0 14 5 5 10 9 5 6 4 1 359 359 360 1 358 353 353 354 354 355
164 170 174 178 182 182 181 179 176 176 176 170 163 160 153 144 139 140 140 138 138 136 134 134 136 136 136 139 139 139 143 145 151 162 168 170 176 176 171 167 160 148 145 149 149 121 104 64 30 34 36 41 201 244 291 343 3 5 9 9 6 4 3 359 357 357 360 3 3 359 358 359 359 358
159 162 166 171 176 176 174 172 170 171 173 169 163 161 158 152 147 143 140 138 139 137 133 133 133 133 133 134 134 136 139 140 142 143 142 143 153 167 172 172 163 143 132 132 115 87 77 48 31 28 14 1 321 313 317 327 359 3 8 12 10 7 5 1 357 356 359 3 5 4 1 2 2 1
160 161 162 163 167 167 165 165 166 166 166 163 160 158 154 149 148 145 141 139 138 135 133 132 131 131 131 131 132 133 133 133 134 133 131 132 132 134 148 163 158 141 131 120 78 65 65 45 25 14 7 353 328 329 331 328 345 357 4 13 16 13 10 5 360 357 359 2 5 5 4 3 3 3
157 158 157 158 161 162 161 162 163 163 162 161 157 154 149 146 146 144 140 138 136 133 132 132 131 132 134 133 132 132 130 128 127 124 122 123 126 125 124 129 130 122 116 102 66 55 64 55 28 6 360 346 327 328 334 333 343 352 358 4 12 15 13 8 2 359 358 360 2 4 5 4 4 3
153 153 154 156 159 159 158 159 161 161 160 156 152 149 146 145 144 141 138 137 135 132 132 132 132 134 136 135 133 132 128 126 125 123 120 118 118 121 121 118 112 103 97 93 76 63 65 58 32 353 337 330 318 316 320 329 346 356 357 357 2 9 10 7 3 0 358 358 360 2 2 1 1 2
149 150 151 152 152 152 153 155 155 153 151 149 147 146 145 144 142 140 138 138 136 133 133 134 134 136 136 134 132 130 129 129 129 126 123 121 121 122 118 109 101 96 91 90 86 69 47 32 11 328 305 300 299 300 306 327 349 1 2 355 353 358 5 6 4 1 359 357 356 358 358 357 359 359
141 142 145 145 143 144 147 147 145 142 140 141 141 142 142 142 141 141 141 139 137 135 134 135 135 136 135 133 131 131 131 131 130 128 127 126 126 125 118 108 101 97 91 83 69 38 13 349 331 313 291 287 287 277 272 344 349 357 5 360 351 351 358 3 4 2 359 355 353 354 356 359 1 359
132 134 137 138 138 138 138 137 137 135 134 135 136 137 139 140 140 142 142 141 138 136 136 136 136 136 136 134 134 134 131 129 130 132 131 130 128 126 118 108 103 99 90 75 45 9 356 341 329 312 287 282 271 227 194 0 353 353 360 2 355 350 353 358 1 1 358 353 351 352 354 358 360 358
126 127 128 129 131 132 130 128 129 129 130 132 134 135 137 138 138 140 140 139 137 136 136 137 137 137 138 137 136 135 131 129 131 134 134 132 132 131 123 114 111 109 102 85 50 15 3 356 351 334 291 282 252 203 198 275 2 359 359 0 358 355 357 358 356 356 357 354 350 350 351 353 355 354
123 123 123 123 126 128 128 128 128 128 129 129 131 133 136 136 138 140 139 137 137 138 139 139 140 141 140 138 137 134 130 128 130 134 135 132 130 129 123 114 110 106 99 80 44 18 10 10 17 29 345 288 257 217 209 238 357 2 1 0 357 355 358 0 357 356 357 354 347 343 343 347 352 353
123 123 122 123 127 129 129 129 129 129 129 128 128 132 135 137 138 139 139 139 140 141 142 142 143 143 140 138 138 135 131 128 129 131 132 128 124 120 115 109 104 98 89 70 41 20 13 12 18 29 35 10 268 225 213 232 342 356 0 1 358 354 355 359 359 358 358 355 346 336 333 338 347 352
119 121 121 121 125 127 128 130 131 131 132 130 130 132 134 137 140 140 140 142 144 144 145 144 144 142 139 138 138 136 132 130 130 130 129 124 119 114 111 107 101 92 79 62 41 25 16 13 14 19 30 44 65 158 220 235 303 344 351 354 356 355 354 356 358 357 356 355 347 335 327 329 337 345
116 121 121 121 124 126 127 131 133 132 132 132 134 136 135 137 141 142 143 146 148 148 147 145 143 140 137 136 137 136 134 134 134 133 130 125 119 114 110 106 96 78 62 49 35 24 17 14 15 17 22 37 69 53 335 262 268 326 340 342 348 352 353 352 354 355 354 352 346 336 328 326 329 337
118 123 123 123 126 127 129 133 134 134 134 135 137 138 138 139 142 145 147 149 150 149 147 144 141 138 136 137 137 137 137 139 139 137 133 128 124 119 112 106 95 71 53 40 27 20 17 16 17 19 19 18 22 2 354 339 314 322 329 329 333 343 348 346 346 348 350 348 343 337 331 326 325 331
118 123 123 122 125 128 132 135 135 134 135 137 138 138 139 142 145 147 150 151 150 148 146 143 140 139 140 140 140 141 142 144 144 142 138 133 129 125 119 113 102 77 53 37 24 18 17 15 15 19 20 15 353 330 332 328 327 336 345 336 331 339 347 344 340 341 343 343 342 339 336 330 327 331
123 125 124 123 127 132 136 138 137 137 137 139 141 142 142 144 146 148 150 150 149 148 147 144 143 143 143 144 145 147 149 150 149 146 142 138 134 129 127 123 113 91 58 37 27 23 20 15 14 15 14 4 341 325 319 314 317 333 358 6 353 349 351 347 341 337 336 337 337 335 334 333 332 335
126 127 128 129 133 138 140 140 140 141 141 143 145 146 146 146 147 149 150 150 150 150 148 146 145 145 145 146 149 151 152 154 153 147 143 140 135 132 133 132 121 100 66 39 32 29 24 15 9 5 1 350 332 324 322 317 318 333 353 9 10 4 357 351 343 334 330 334 335 332 334 337 336 337
125 126 131 136 140 143 145 144 143 144 145 147 148 148 148 147 148 149 150 150 150 150 149 148 148 148 147 149 153 155 155 155 152 148 145 142 138 136 138 138 129 108 71 41 35 34 26 12 4 353 344 339 333 333 334 329 327 335 345 354 4 7 5 0 354 343 338 341 340 336 339 342 339 338
128 130 135 140 144 146 147 148 148 148 150 151 151 150 148 147 147 148 149 150 151 151 150 150 151 151 151 152 157 159 158 156 153 151 149 146 145 146 145 143 137 117 70 42 40 35 21 11 8 354 333 334 342 346 345 335 330 335 342 348 354 359 4 8 7 1 358 357 353 345 343 345 343 344
132 136 139 143 146 148 149 151 151 153 154 155 154 153 149 147 147 149 152 153 153 153 152 152 153 154 153 155 159 162 161 157 154 153 152 151 152 153 151 150 144 122 58 41 46 35 21 15 11 0 347 348 356 355 348 339 336 338 343 347 351 354 357 1 5 7 11 12 8 1 355 352 348 345
139 141 144 148 150 152 154 156 157 159 160 159 158 157 154 150 149 152 154 155 155 154 154 153 154 156 157 158 161 163 161 157 155 155 155 155 155 156 157 157 151 132 55 46 45 36 36 27 10 13 14 7 4 3 354 345 341 342 344 348 352 354 355 356 359 2 7 11 12 9 5 1 355 348
146 147 149 151 153 155 158 160 161 163 164 163 163 162 160 154 150 151 154 155 155 155 155 154 155 158 161 162 162 160 158 157 157 156 154 154 156 159 162 161 162 177 130 43 34 37 50 40 20 23 24 10 6 9 5 355 349 347 348 350 353 355 355 355 355 354 354 357 3 5 4 1 357 353